Akron, CO

7:13 AM MDT on July 21, 2017 (GMT -0600)
Akron-Washington County

Weather History for KAKO - December, 2012

Change the Weather History Date:

Tuesday, December 11, 2012

  Actual Average Record
Temperature  
Mean Temperature 28 °F 28 °F  
Max Temperature 40 °F 40 °F 73 °F (1939)
Min Temperature 15 °F 17 °F -12 °F (1972)
Degree Days  
Heating Degree Days 37    
Month to date heating degree days 312  
Cooling Degree Days 0    
Month to date cooling degree days 0  
Moisture  
Dew Point 11 °F    
Average Humidity 59    
Maximum Humidity 92    
Minimum Humidity 25    
Precipitation  
Precipitation 0.00 in 0.02 in 0.36 in (1965)
Month to date precipitation T 0.19  
Year to date precipitation 7.85 16.53  
Sea Level Pressure  
Sea Level Pressure 29.97 in    
Wind  
Wind Speed 10 mph (SW)    
Max Wind Speed 18 mph    
Max Gust Speed 23 mph    
Visibility 10 miles    
Events      
T = Trace of Precipitation, MM = Missing Value Source: NWS Daily Summary

Daily Weather History Graph

Daily Weather History Graph

Search for Another Location

Airport or City:

Trip Planner

Search our weather history database for the weather conditions in past years. The results will help you decide how hot, cold, wet, or windy it might be!

Date:

Astronomy

Dec. 11, 2012 Rise Set
Actual Time 7:05 AM MST 4:27 PM MST
Civil Twilight 6:35 AM MST 4:57 PM MST
Nautical Twilight 6:00 AM MST 5:31 PM MST
Astronomical Twilight 5:27 AM MST 6:04 PM MST
Moon 5:03 AM MST (12/11) 3:08 PM MST (12/11)
Length of Visible Light 10h 22m
Length of Day
9h 21m
Waning Crescent, 4% of the Moon is Illuminated
Dec 11
Waning Crescent
Dec 13
New
Dec 19
First Quarter
Dec 28
Full
Jan 4
Last Quarter

Hourly Weather History & Observations

Time (MST) Temp. Windchill Dew Point Humidity Pressure Visibility Wind Dir Wind Speed Gust Speed Precip Events Conditions
12:53 AM 23.0 °F 13.9 °F 14.0 °F 68% 30.04 in 10.0 mi WNW 8.1 mph - N/A   Overcast
1:53 AM 21.0 °F 11.4 °F 14.0 °F 74% 30.04 in 10.0 mi West 8.1 mph - N/A   Overcast
2:53 AM 21.0 °F 10.6 °F 15.1 °F 78% 30.04 in 10.0 mi West 9.2 mph - N/A   Overcast
3:53 AM 19.9 °F 8.6 °F 15.1 °F 81% 30.06 in 10.0 mi West 10.4 mph - N/A   Mostly Cloudy
5:53 AM 17.1 °F 6.6 °F 14.0 °F 88% 30.07 in 10.0 mi SW 8.1 mph - N/A   Partly Cloudy
6:53 AM 16.0 °F 6.3 °F 14.0 °F 92% 30.08 in 10.0 mi SW 6.9 mph - N/A   Clear
7:53 AM 19.9 °F 6.2 °F 14.0 °F 78% 30.08 in 10.0 mi SW 15.0 mph - N/A   Clear
8:53 AM 26.1 °F 15.0 °F 15.1 °F 63% 30.07 in 10.0 mi SW 12.7 mph - N/A   Clear
9:53 AM 30.9 °F 20.7 °F 15.1 °F 52% 30.05 in 10.0 mi SW 13.8 mph - N/A   Clear
10:53 AM 35.1 °F 25.5 °F 14.0 °F 42% 30.02 in 10.0 mi SW 15.0 mph - N/A   Clear
11:53 AM 37.0 °F 28.5 °F 10.9 °F 34% 29.97 in 10.0 mi West 13.8 mph 20.7 mph N/A   Clear
12:53 PM 37.9 °F 33.5 °F 10.0 °F 32% 29.93 in 10.0 mi WSW 5.8 mph - N/A   Clear
1:53 PM 39.0 °F 34.0 °F 8.1 °F 28% 29.91 in 10.0 mi WSW 6.9 mph - N/A   Clear
2:53 PM 39.0 °F 32.3 °F 7.0 °F 27% 29.90 in 10.0 mi SW 10.4 mph - N/A   Clear
3:53 PM 37.0 °F 29.8 °F 7.0 °F 29% 29.91 in 10.0 mi SSW 10.4 mph - N/A   Clear
4:53 PM 32.0 °F 24.2 °F 5.0 °F 32% 29.92 in 10.0 mi South 9.2 mph - N/A   Clear
5:53 PM 28.0 °F 18.1 °F 7.0 °F 41% 29.95 in 10.0 mi South 11.5 mph - N/A   Clear
6:53 PM 26.1 °F 15.6 °F 9.0 °F 49% 29.95 in 10.0 mi SSW 11.5 mph - N/A   Clear
7:53 PM 27.0 °F 16.1 °F 10.0 °F 49% 29.93 in 10.0 mi SSW 12.7 mph - N/A   Clear
8:53 PM 28.9 °F 17.7 °F 8.1 °F 41% 29.89 in 10.0 mi SSW 15.0 mph - N/A   Clear
9:53 PM 28.9 °F 17.3 °F 10.0 °F 45% 29.88 in 10.0 mi SSW 16.1 mph - N/A   Clear
10:53 PM 28.0 °F 17.5 °F 10.0 °F 47% 29.85 in 10.0 mi SSW 12.7 mph - N/A   Clear
11:53 PM 26.1 °F 15.0 °F 10.0 °F 51% 29.84 in 10.0 mi SW 12.7 mph - N/A   Clear